ORBCOMM-X 1 21576U 91050C 25347.64987558 .00000505 00000+0 16216-3 0 9997 2 21576 98.3230 50.4049 0003800 22.6229 337.5129 14.43436547808001 ORBCOMM FM01 1 23545U 95017A 25347.42315580 .00012870 00000+0 12389-2 0 9992 2 23545 69.9633 346.3254 0003750 338.0692 22.0303 14.93101867639233 ORBCOMM FM02 1 23546U 95017B 25347.43031867 .00016857 00000+0 15558-2 0 9997 2 23546 69.9649 4.9313 0004876 355.1625 4.9484 14.94675769638900 ORBCOMM FM08 1 25112U 97084A 25347.65665041 .00002223 00000+0 65013-3 0 9999 2 25112 45.0119 225.8806 0006651 73.1410 287.0171 14.46598613467356 ORBCOMM FM10 1 25113U 97084B 25347.11316871 .00002388 00000+0 69895-3 0 9999 2 25113 45.0134 231.2044 0005452 35.6006 324.5209 14.46343964642419 ORBCOMM FM11 1 25114U 97084C 25347.08020792 .00002437 00000+0 71639-3 0 9994 2 25114 45.0121 232.3272 0006249 37.3269 322.8016 14.46085197467363 ORBCOMM FM12 1 25115U 97084D 25347.66190234 .00002017 00000+0 59953-3 0 9997 2 25115 45.0124 229.2649 0005340 37.6522 322.4703 14.46110644467248 ORBCOMM FM09 1 25116U 97084E 25347.36568760 .00002004 00000+0 59781-3 0 9993 2 25116 45.0130 231.8155 0006590 26.1152 334.0030 14.45950309467406 ORBCOMM FM05 1 25117U 97084F 25347.40136073 .00002318 00000+0 67470-3 0 9999 2 25117 45.0131 227.1415 0002987 35.2280 324.8769 14.46710096466553 ORBCOMM FM06 1 25118U 97084G 25347.65597936 .00002282 00000+0 66263-3 0 9995 2 25118 45.0119 225.4402 0001895 34.0121 350.2797 14.46873920467512 ORBCOMM FM07 1 25119U 97084H 25347.66368980 .00002089 00000+0 60963-3 0 9998 2 25119 45.0118 226.1531 0003786 34.6789 325.4309 14.46884386467500 ORBCOMM FM03 1 25158U 98007B 25347.66285072 .00001704 00000+0 63568-3 0 9994 2 25158 107.9632 144.3947 0046585 293.0926 66.5308 14.35028481449788 ORBCOMM FM04 1 25159U 98007C 25347.47701890 .00002167 00000+0 79348-3 0 9992 2 25159 107.9625 147.3557 0042416 290.6794 68.9802 14.35275001449941 ORBCOMM FM17 1 25413U 98046A 25347.70201199 .00001486 00000+0 56013-3 0 9998 2 25413 44.9929 130.1298 0001898 54.8459 305.2566 14.35538989428960 ORBCOMM FM18 1 25414U 98046B 25347.56069413 .00001839 00000+0 63399-3 0 9991 2 25414 44.9932 43.3123 0003137 134.1466 225.9641 14.39157152430086 ORBCOMM FM19 1 25415U 98046C 25347.63271530 .00001723 00000+0 59910-3 0 9991 2 25415 44.9942 45.2441 0001928 142.1855 26.3499 14.38976460430049 ORBCOMM FM20 1 25416U 98046D 25347.57410907 .00001436 00000+0 52032-3 0 9997 2 25416 44.9949 51.4762 0001819 218.8796 141.1922 14.37666823430074 ORBCOMM FM16 1 25417U 98046E 25347.62656504 .00001847 00000+0 63176-3 0 9996 2 25417 44.9941 40.3450 0003593 155.5639 204.5381 14.39534432430101 ORBCOMM FM15 1 25418U 98046F 25347.57865472 .00001732 00000+0 59955-3 0 9990 2 25418 44.9970 46.2651 0003430 157.6604 202.4394 14.39163264430086 ORBCOMM FM14 1 25419U 98046G 25347.47919371 .00002158 00000+0 72964-3 0 9996 2 25419 44.9958 44.4283 0002291 168.9728 191.1171 14.39582724430049 ORBCOMM FM13 1 25420U 98046H 25347.54709157 .00001455 00000+0 52117-3 0 9992 2 25420 44.9974 53.9006 0003641 122.2528 237.8674 14.38200173429057 ORBCOMM FM21 1 25475U 98053A 25347.52849407 .00001417 00000+0 51277-3 0 9995 2 25475 45.0067 139.9365 0001275 89.5524 270.5471 14.37795996423051 ORBCOMM FM22 1 25476U 98053B 25347.63696046 .00001616 00000+0 56472-3 0 9990 2 25476 45.0053 132.7499 0002525 68.2694 291.8423 14.38969017423115 ORBCOMM FM23 1 25477U 98053C 25347.71192038 .00001414 00000+0 50932-3 0 9993 2 25477 45.0067 140.9056 0002042 66.2005 293.9057 14.38034328423236 ORBCOMM FM24 1 25478U 98053D 25347.50702159 .00001961 00000+0 67996-3 0 9997 2 25478 45.0054 138.5391 0001834 80.2789 279.8266 14.38657272423268 ORBCOMM FM25 1 25479U 98053E 25347.69041031 .00001737 00000+0 60784-3 0 9992 2 25479 45.0048 135.9670 0004234 79.8936 280.2390 14.38624968423583 ORBCOMM FM26 1 25480U 98053F 25347.68490377 .00001484 00000+0 53690-3 0 9991 2 25480 45.0052 133.7930 0006270 92.3407 267.8159 14.37597559423476 ORBCOMM FM27 1 25481U 98053G 25347.60457579 .00001863 00000+0 64825-3 0 9994 2 25481 45.0030 136.5082 0001115 135.7719 224.3219 14.38658657423500 ORBCOMM FM28 1 25482U 98053H 25347.62198862 .00001552 00000+0 54616-3 0 9996 2 25482 45.0058 73.7027 0004333 145.1528 214.9605 14.38789465424192 ORBCOMM FM30 1 25980U 99065A 25347.65432091 .00001436 00000+0 51927-3 0 9994 2 25980 45.0324 319.9689 0006081 208.1533 151.8987 14.37766485360274 ORBCOMM FM31 1 25981U 99065B 25347.63598615 .00001427 00000+0 51732-3 0 9992 2 25981 45.0238 313.5091 0004538 242.1059 117.9330 14.37693233359826 ORBCOMM FM32 1 25982U 99065C 25347.66190704 .00001435 00000+0 52955-3 0 9990 2 25982 45.0168 331.1643 0006828 228.3863 131.6400 14.36751197360401 ORBCOMM FM33 1 25983U 99065D 25347.68335506 .00001413 00000+0 48417-3 0 9998 2 25983 45.0271 225.2742 0007805 251.8254 108.1746 14.40531880361943 ORBCOMM FM36 1 25984U 99065E 25347.32388642 .00002320 00000+0 79494-3 0 9996 2 25984 45.0392 321.6292 0000783 141.6973 218.3932 14.38714818360212 ORBCOMM FM35 1 25985U 99065F 25347.64372231 .00001574 00000+0 56638-3 0 9994 2 25985 45.0399 326.6057 0004702 242.5120 117.5251 14.37622081360600 ORBCOMM FM34 1 25986U 99065G 25347.33238201 .00001598 00000+0 57495-3 0 9997 2 25986 45.0399 328.5480 0002990 197.7424 162.3320 14.37572016360671 ORBCOMM FM38 1 33060U 08031A 25347.58912335 .00002580 00000+0 34634-3 0 9998 2 33060 48.4376 179.7516 0004397 99.9639 260.1773 14.82267138941350 ORBCOMM FM41 1 33061U 08031B 25347.64990137 .00002509 00000+0 34107-3 0 9998 2 33061 48.4413 187.8768 0003549 82.9351 307.1161 14.81823774940842 ORBCOMM FM29 1 33062U 08031C 25347.61959888 .00002591 00000+0 35009-3 0 9997 2 33062 48.4367 195.5899 0005256 80.5408 308.8074 14.81970451940752 ORBCOMM FM39 1 33063U 08031D 25347.69119237 .00002292 00000+0 32445-3 0 9991 2 33063 48.4386 221.5542 0006246 47.3226 312.8214 14.80411608940381 ORBCOMM FM37 1 33064U 08031E 25347.64192419 .00002329 00000+0 32770-3 0 9992 2 33064 48.4376 210.0300 0004777 69.1086 320.7939 14.80608593940630 ORBCOMM FM40 1 33065U 08031F 25347.60990341 .00003070 00000+0 39900-3 0 9995 2 33065 48.4392 191.0780 0005781 87.0950 326.9801 14.83113080940781 VESSELSAT 1 1 37840U 11058C 25347.60679029 .00000405 00000+0 76414-4 0 9991 2 37840 19.9617 88.1777 0013712 0.8525 359.1902 14.11398966731681 ORBCOMM FM109 1 40086U 14040A 25347.13842278 .00001193 00000+0 29048-3 0 9992 2 40086 47.0031 250.9333 0001158 69.2035 290.8975 14.58545875607184 ORBCOMM FM107 1 40087U 14040B 25347.43167851 .00001164 00000+0 28381-3 0 9990 2 40087 47.0046 250.4363 0001207 353.9811 6.1060 14.58622524607303 ORBCOMM FM106 1 40088U 14040C 25347.63627613 .00001648 00000+0 30247-3 0 9991 2 40088 47.0602 57.0852 0016672 184.5908 175.4832 14.70033034609870 ORBCOMM FM111 1 40089U 14040D 25347.09033013 .00005248 00000+0 58822-3 0 9996 2 40089 47.0000 245.2575 0029007 329.1396 30.7795 14.87724857616855 ORBCOMM FM104 1 40090U 14040E 25347.54944402 .00000988 00000+0 25488-3 0 9999 2 40090 47.0058 285.6595 0016978 304.1708 55.7567 14.57009547606776 ORBCOMM FM103 1 40091U 14040F 25347.14002504 .00001052 00000+0 26047-3 0 9999 2 40091 47.0051 252.4738 0001788 1.8366 358.2526 14.58535606590224 ORBCOMM FM114 1 41179U 15081A 25347.63630744 .00000931 00000+0 23470-3 0 9992 2 41179 47.0030 159.0833 0001807 73.0597 287.0487 14.58558345530668 ORBCOMM FM119 1 41180U 15081B 25347.63239148 .00001038 00000+0 25754-3 0 9993 2 41180 47.0011 68.4602 0001164 201.0931 158.9907 14.58503608531911 ORBCOMM FM105 1 41181U 15081C 25347.33810776 .00000591 00000+0 21078-3 0 9991 2 41181 47.0011 92.3003 0001080 25.0477 335.0456 14.45405552526667 ORBCOMM FM110 1 41182U 15081D 25347.48926363 .00001415 00000+0 33754-3 0 9998 2 41182 47.0001 159.2807 0002753 289.5426 70.5162 14.58582631530513 ORBCOMM FM118 1 41183U 15081E 25347.45523629 .00001104 00000+0 27138-3 0 9998 2 41183 47.0023 159.7391 0003189 254.0920 105.9614 14.58575903530611 ORBCOMM FM112 1 41184U 15081F 25347.59493697 .00001117 00000+0 27396-3 0 9995 2 41184 46.9998 67.6146 0000641 78.7621 281.3336 14.58579269531851 ORBCOMM FM113 1 41185U 15081G 25347.50369392 .00001468 00000+0 34880-3 0 9996 2 41185 47.0014 68.4014 0000500 116.5663 243.5274 14.58575413531822 ORBCOMM FM115 1 41186U 15081H 25347.49497640 .00001305 00000+0 28656-3 0 9997 2 41186 46.9987 266.5282 0000718 213.3965 146.6877 14.62923845534028 ORBCOMM FM108 1 41187U 15081J 25347.05524829 .00001572 00000+0 37116-3 0 9997 2 41187 47.0061 342.0281 0001924 34.6086 325.4924 14.58556034532903 ORBCOMM FM117 1 41188U 15081K 25347.43208457 .00001587 00000+0 37400-3 0 9998 2 41188 47.0024 338.9460 0002162 48.7579 311.3493 14.58583413533002 ORBCOMM FM116 1 41189U 15081L 25347.61790154 .00001450 00000+0 34502-3 0 9998 2 41189 47.0029 67.8380 0002585 268.1487 91.9103 14.58575515531845